ICEYE-X11

导读 | 星芒AI

ICEYE-X11 是 ICEYE 公司研发的一颗合成孔径雷达(SAR)卫星,具备高分辨率成像能力,可在任何天气和光照条件下提供地球表面的实时图像。该卫星采用小型卫星平台,提高了任务灵活性和部署效率。作为 ICEYE 低轨 SAR 卫星星座的一部分,ICEYE-X11 用于支持灾害监测、环境管理、安全与防务等应用,增强全球对地观测能力。

基本信息
目录编号:
48918
目录名称:
ICEYE-X11
国际标识:
2021-059AR
轨道中心:
EARTH
卫星名称:
ICEYE-X11
卫星全名:
--
卫星状态:
在轨 (已飞行1629 天)
发射日期:
2021-06-30 UTC
国别 :
(FI)
星等 :
--
轨道信息
数据来源 国际轨道数据 AOE轨道数据
星历时间 2025-12-15T06:15:47+0800
20小时前
查看轨道信息
2025-12-09T20:00:00+0800
6天前
查看轨道信息
半长轴 6763.997km 6766.184km
偏心率 0.000686 0.0006939
轨道倾角 97.655° 97.657°
近地点辐角 308.346° 326.475°
升交点赤经 164.395° 158.542°
平近点角 51.718° 166.793°
近地点 381.221km 383.353km
远地点 390.503km 392.745km
周期 92.271分钟 92.316分钟
每日圈数 15.60622 15.598652
详细信息
使用方式:
暂无
2D轨道图
3D轨道图
轨道高度分析图
轨道倾角分析图
轨道综合分析图
查看轨道综合分析图